Regional Weather Roundup
Issued by NWS

Home | Current Version | Previous Version | Graphics & Text | Print | Product List | Glossary On
Versions: 1 2 3 4 5 6 7 8 9 10 11 12 13 14 15 16 17 18 19 20 21 22 23 24 25 26 27 28 29 30 31 32 33 34 35 36 37 38 39 40 41 42 43 44 45 46 47 48 49 50
676
ASUS45 KCYS 050310
RWRWY

WYOMING REGIONAL WEATHER ROUNDUP
NATIONAL WEATHER SERVICE CHEYENNE WY
800 PM MST THU FEB 04 2016

NOTE:  "FAIR" INDICATES FEW OR NO CLOUDS BELOW 12,000 FEET
WITH NO SIGNIFICANT WEATHER AND/OR OBSTRUCTIONS TO VISIBILITY.

WYZ001-050400-
YELLOWSTONE NATIONAL PARK

CITY           SKY/WX    TMP DP  RH WIND       PRES   REMARKS
LK YELLOWSTONE   N/A     10   6  84 CALM      30.22R
W YELLOWSTONE  NOT AVBL

$$
WYZ002>013-054>058-071-098>099-050400-
NORTHERN WYOMING

CITY           SKY/WX    TMP DP  RH WIND       PRES   REMARKS
JACKSON        CLOUDY    21  16  79 S10       30.28R WCI  10
CODY           FAIR      30   9  40 W16       30.11R WCI  19
GREYBULL       CLOUDY    21  11  65 E5        30.17R WCI  15
WORLAND        FAIR      17  12  80 S3        30.16R
SHERIDAN       MOCLDY    26  14  60 W7        30.05R WCI  18
BUFFALO        FAIR      32  11  41 NW15      30.05R WCI  22
GILLETTE       CLOUDY    27  16  63 SW16      30.04R WCI  15
HULETT         CLOUDY    32  19  59 SW13      30.04S WCI  22
NEWCASTLE      FAIR      25  18  74 SE6       30.08S WCI  18

$$
WYZ014>020-022>026-101>103-050400-
CENTRAL WYOMING

CITY           SKY/WX    TMP DP  RH WIND       PRES   REMARKS
BIG PINEY      CLOUDY    15  10  80 NE10      30.26R WCI   2
PINEDALE       CLOUDY    12   9  85 NW5       30.26R WCI   4
DUBOIS         FAIR      19   7  58 W30G41    30.14S WCI   0
LANDER         FAIR      22   9  57 S5        30.13R WCI  16
RIVERTON       FAIR      27  10  49 NW15G26   30.14R WCI  15
CASPER         CLOUDY    22  13  68 SW21      30.13R WCI   6
DOUGLAS        MOCLDY    26  16  65 N6        30.11R WCI  19

$$
WYZ021-027>030-104>119-050400-
SOUTHERN WYOMING

CITY           SKY/WX    TMP DP  RH WIND       PRES   REMARKS
EVANSTON       CLOUDY    20  15  81 SW17      30.31R WCI   5
FORT BRIDGER   CLOUDY    21  21 100 W24G30    30.31R FOG     WCI   4
ROCK SPRINGS   MOCLDY    19  14  81 W18       30.25R WCI   4
DIXON          LGT SNOW  20  16  82 SW10      30.29R WCI   9
RAWLINS        CLOUDY    18  13  80 W24G35    30.18R HAZE    WCI   0
SARATOGA       CLOUDY    19  12  73 W23       30.17S WCI   2
LARAMIE        CLOUDY    19   9  65 SW17      30.10S WCI   4
CHEYENNE       CLOUDY    26  13  57 W23G31    30.12R WCI  11
TORRINGTON     CLOUDY    29  21  72 W15       30.14S WCI  18
PINE BLUFFS    CLOUDY    27  23  86 CALM      30.15R

$$




USA.gov is the U.S. government's official web portal to all federal, state and local government web resources and services.